BEIDOU-3 M15 (C34)

Last updated on Jan. 24, 2021, 6:19 a.m. UTC

1 43647U 18078A   21023.73943836 -.00000078  00000-0  10000-3 0  9999
2 43647  55.2142   8.0677 0007252 340.0118 243.2668  1.86232875 15465
UTC
Height (km)
Latitude
Longitude
Inclination
Orbital Period
UTC large
Height (km)
Speed (km/s)
/
Latitude / Longitude
Inclination (degrees)
Orbital Period (minutes)
Azimuth
Elevation
Range (km)
Doppler Factor
iOS Compass Heading
iOS Angle

Next 30 passes for location: Hong Kong

Rise time Rise Azimuth (degrees) Set time Set Azimuth (degrees) Duration Max altitude (degrees)

No matching passes for this satellites